Weather History for KJYG - November, 2012

Change the Weather History Date:

Wednesday, November 21, 2012

  Actual Average Record
Temperature  
Mean Temperature 54 °F -  
Max Temperature 69 °F 37 °F 69 °F (2012)
Min Temperature 39 °F 20 °F -5 °F (1964)
Degree Days  
Heating Degree Days 11    
Growing Degree Days 4 (Base 50)    
Moisture  
Dew Point 35 °F    
Average Humidity 53    
Maximum Humidity 81    
Minimum Humidity 20    
Precipitation  
Precipitation 0.00 in - - ()
Sea Level Pressure  
Sea Level Pressure 29.88 in    
Wind  
Wind Speed 12 mph (South)    
Max Wind Speed 21 mph    
Max Gust Speed 29 mph    
Visibility 10 miles    
Events      
Averages and records for this station are not official NWS values.
T = Trace of Precipitation, MM = Missing Value Source: NWS Daily Summary

Daily Weather History Graph

Daily Weather History Graph

Search for Another Location

Airport or City:

Trip Planner

Search our weather history database for the weather conditions in past years. The results will help you decide how hot, cold, wet, or windy it might be!

Date:

Astronomy

Nov. 21, 2012 Rise Set
Actual Time 7:21 AM CST 4:46 PM CST
Civil Twilight 6:49 AM CST 5:18 PM CST
Nautical Twilight 6:14 AM CST 5:53 PM CST
Astronomical Twilight 5:40 AM CST 6:27 PM CST
Moon 1:15 PM CST (11/21) 12:28 AM CST (11/21)
Length of Visible Light 10h 28m
Length of Day
9h 25m
First Quarter, 62% of the Moon is Illuminated
Nov 21
First Quarter
Nov 28
Full
Dec 6
Last Quarter
Dec 13
New
Dec 19
First Quarter

Hourly Weather History & Observations

Time (CST) Temp. Windchill Dew Point Humidity Pressure Visibility Wind Dir Wind Speed Gust Speed Precip Events Conditions
12:15 AM 44.6 °F 37.8 °F 30.2 °F 57% 30.02 in 10.0 mi SSE 15.0 mph 18.4 mph N/A   Clear
12:34 AM 46.4 °F 40.7 °F 30.2 °F 53% 30.02 in 10.0 mi South 12.7 mph - N/A   Clear
12:55 AM 46.4 °F 39.8 °F 30.2 °F 53% 30.02 in 10.0 mi South 16.1 mph 19.6 mph N/A   Clear
1:15 AM 44.6 °F 37.8 °F 30.2 °F 57% 30.01 in 10.0 mi South 15.0 mph - N/A   Clear
1:35 AM 44.6 °F 38.1 °F 32.0 °F 61% 30.01 in 10.0 mi South 13.8 mph - N/A   Clear
1:54 AM 44.6 °F 38.1 °F 32.0 °F 61% 30.00 in 10.0 mi South 13.8 mph - N/A   Clear
2:15 AM 44.6 °F 37.8 °F 32.0 °F 61% 29.99 in 10.0 mi South 15.0 mph - N/A   Clear
2:35 AM 44.6 °F 37.8 °F 32.0 °F 61% 29.99 in 10.0 mi South 15.0 mph - N/A   Clear
2:55 AM 44.6 °F 37.4 °F 32.0 °F 61% 29.99 in 10.0 mi South 16.1 mph 21.9 mph N/A   Clear
3:15 AM 42.8 °F 36.2 °F 32.0 °F 66% 29.99 in 10.0 mi South 12.7 mph - N/A   Clear
3:35 AM 42.8 °F 36.6 °F 32.0 °F 66% 29.98 in 10.0 mi South 11.5 mph - N/A   Clear
3:54 AM 42.8 °F 37.0 °F 32.0 °F 66% 29.98 in 10.0 mi South 10.4 mph - N/A   Clear
4:15 AM 42.8 °F 35.1 °F 33.8 °F 70% 29.97 in 10.0 mi South 16.1 mph - N/A   Clear
4:35 AM 42.8 °F 35.8 °F 33.8 °F 70% 29.97 in 10.0 mi South 13.8 mph - N/A   Clear
4:55 AM 44.6 °F 37.2 °F 33.8 °F 66% 29.96 in 10.0 mi South 17.3 mph - N/A   Clear
5:15 AM 44.6 °F 37.4 °F 33.8 °F 66% 29.96 in 10.0 mi South 16.1 mph - N/A   Clear
5:35 AM 44.6 °F 38.1 °F 33.8 °F 66% 29.96 in 10.0 mi South 13.8 mph - N/A   Clear
6:15 AM 41.0 °F 34.3 °F 33.8 °F 76% 29.97 in 10.0 mi South 11.5 mph - N/A   Clear
6:35 AM 39.2 °F - 33.8 °F 81% 29.97 in 10.0 mi Calm Calm - N/A   Clear
6:55 AM 41.0 °F 33.9 °F 33.8 °F 76% 29.96 in 10.0 mi South 12.7 mph - N/A   Clear
7:15 AM 39.2 °F - 33.8 °F 81% 29.97 in 10.0 mi Calm Calm - N/A   Clear
7:35 AM 39.2 °F - 33.8 °F 81% 29.97 in 10.0 mi Calm Calm - N/A   Clear
7:55 AM 42.8 °F - 33.8 °F 70% 29.97 in 10.0 mi Calm Calm - N/A   Clear
8:15 AM 44.6 °F 40.7 °F 35.6 °F 71% 29.96 in 10.0 mi South 6.9 mph - N/A   Clear
8:34 AM 44.6 °F 39.2 °F 35.6 °F 71% 29.96 in 10.0 mi South 10.4 mph - N/A   Clear
8:55 AM 46.4 °F - 35.6 °F 66% 29.95 in 10.0 mi Calm Calm - N/A   Clear
9:15 AM 48.2 °F - 37.4 °F 66% 29.96 in 10.0 mi Calm Calm - N/A   Clear
9:35 AM 50.0 °F - 37.4 °F 62% 29.96 in 10.0 mi South 6.9 mph - N/A   Clear
9:53 AM 51.8 °F - 37.4 °F 58% 29.95 in 10.0 mi South 10.4 mph - N/A   Clear
10:15 AM 53.6 °F - 37.4 °F 54% 29.95 in 10.0 mi South 5.8 mph 18.4 mph N/A   Clear
10:35 AM 55.4 °F - 37.4 °F 51% 29.95 in 10.0 mi Calm Calm - N/A   Clear
10:55 AM 55.4 °F - 35.6 °F 47% 29.95 in 10.0 mi Calm Calm - N/A   Clear
11:14 AM 57.2 °F - 33.8 °F 41% 29.94 in 10.0 mi SSW 4.6 mph - N/A   Clear
11:34 AM 60.8 °F - 33.8 °F 36% 29.94 in 10.0 mi SSW 6.9 mph - N/A   Clear
11:55 AM 60.8 °F - 33.8 °F 36% 29.91 in 10.0 mi SSW 10.4 mph - N/A   Clear
12:15 PM 62.6 °F - 33.8 °F 34% 29.89 in 10.0 mi South 12.7 mph - N/A   Clear
12:35 PM 64.4 °F - 33.8 °F 32% 29.88 in 10.0 mi South 11.5 mph 20.7 mph N/A   Clear
12:55 PM 66.2 °F - 30.2 °F 26% 29.88 in 10.0 mi South 12.7 mph 18.4 mph N/A   Clear
1:14 PM 66.2 °F - 30.2 °F 26% 29.87 in 10.0 mi South 11.5 mph 19.6 mph N/A   Clear
1:35 PM 68.0 °F - 30.2 °F 24% 29.86 in 10.0 mi SSW 12.7 mph 18.4 mph N/A   Clear
1:55 PM 69.8 °F - 28.4 °F 21% 29.85 in 10.0 mi SSW 15.0 mph - N/A   Clear
2:15 PM 69.8 °F - 28.4 °F 21% 29.84 in 10.0 mi South 17.3 mph 20.7 mph N/A   Clear
2:34 PM 69.8 °F - 26.6 °F 20% 29.83 in 10.0 mi South 11.5 mph 18.4 mph N/A   Clear
2:55 PM 69.8 °F - 26.6 °F 20% 29.82 in 10.0 mi South 15.0 mph 21.9 mph N/A   Clear
3:15 PM 69.8 °F - 30.2 °F 23% 29.82 in 10.0 mi South 20.7 mph 28.8 mph N/A   Clear
3:35 PM 68.0 °F - 32.0 °F 26% 29.82 in 10.0 mi South 19.6 mph 25.3 mph N/A   Clear
3:55 PM 66.2 °F - 32.0 °F 28% 29.81 in 10.0 mi South 13.8 mph - N/A   Clear
4:15 PM 66.2 °F - 33.8 °F 30% 29.81 in 10.0 mi South 17.3 mph - N/A   Clear
4:35 PM 64.4 °F - 35.6 °F 34% 29.80 in 10.0 mi South 15.0 mph - N/A   Clear
4:55 PM 62.6 °F - 37.4 °F 39% 29.80 in 10.0 mi South 10.4 mph - N/A   Clear
5:15 PM 60.8 °F - 39.2 °F 45% 29.80 in 10.0 mi South 11.5 mph - N/A   Clear
5:35 PM 60.8 °F - 39.2 °F 45% 29.80 in 10.0 mi South 11.5 mph - N/A   Clear
5:55 PM 60.8 °F - 39.2 °F 45% 29.80 in 10.0 mi South 11.5 mph - N/A   Clear
6:14 PM 59.0 °F - 39.2 °F 48% 29.80 in 10.0 mi South 12.7 mph - N/A   Clear
6:35 PM 59.0 °F - 39.2 °F 48% 29.79 in 10.0 mi SSE 16.1 mph 20.7 mph N/A   Clear
6:55 PM 59.0 °F - 39.2 °F 48% 29.78 in 10.0 mi SSE 15.0 mph 21.9 mph N/A   Clear
7:15 PM 57.2 °F - 39.2 °F 51% 29.78 in 10.0 mi SSE 16.1 mph - N/A   Clear
7:35 PM 57.2 °F - 39.2 °F 51% 29.77 in 10.0 mi SSE 16.1 mph - N/A   Clear
7:55 PM 55.4 °F - 39.2 °F 54% 29.77 in 10.0 mi SSE 15.0 mph - N/A   Clear
8:15 PM 55.4 °F - 39.2 °F 54% 29.76 in 10.0 mi SSE 13.8 mph - N/A   Clear
8:35 PM 55.4 °F - 41.0 °F 58% 29.75 in 10.0 mi South 18.4 mph 23.0 mph N/A   Clear
8:55 PM 55.4 °F - 41.0 °F 58% 29.74 in 10.0 mi South 16.1 mph 21.9 mph N/A   Clear
9:15 PM 55.4 °F - 41.0 °F 58% 29.74 in 10.0 mi SSE 16.1 mph 23.0 mph N/A   Clear
9:35 PM 55.4 °F - 41.0 °F 58% 29.74 in 10.0 mi South 15.0 mph 21.9 mph N/A   Clear
9:55 PM 55.4 °F - 41.0 °F 58% 29.73 in 10.0 mi SSE 12.7 mph - N/A   Clear
10:14 PM 55.4 °F - 41.0 °F 58% 29.73 in 10.0 mi South 12.7 mph - N/A   Clear
10:35 PM 53.6 °F - 41.0 °F 62% 29.72 in 10.0 mi South 11.5 mph - N/A   Clear
10:55 PM 53.6 °F - 41.0 °F 62% 29.71 in 10.0 mi South 13.8 mph - N/A   Clear
11:15 PM 53.6 °F - 41.0 °F 62% 29.70 in 10.0 mi South 13.8 mph 18.4 mph N/A   Clear
11:35 PM 53.6 °F - 42.8 °F 67% 29.70 in 10.0 mi South 16.1 mph 20.7 mph N/A   Clear
11:55 PM 53.6 °F - 42.8 °F 67% 29.70 in 10.0 mi South 16.1 mph - N/A   Clear